{"data":{"norad_id":64796,"intl_designator":"2025-150G","name":"STARLINK-34646","alt_names":[],"object_type":"PAYLOAD","status":"ACTIVE","operator":null,"country":"US","launch_date":"2025-07-16","launch_site_code":"AFWTR","launch_vehicle":null,"mission":null,"orbit_class":"UNKNOWN","rcs_meters":null,"size_class":null,"mass_kg":null,"dimensions":null,"purposes":["comms"],"wikipedia_slug":null,"has_3d_model":false,"image_url":null,"decayed_at":null,"tle_current":{"epoch":"2026-09-20T13:19:47.291808Z","epoch_age_seconds":122832,"freshness":"FRESH","line1":"1 64796U 25150G   26263.55540847 -.00005299  00000+0 -43669-3 0  9999","line2":"2 64796  70.0031   3.2112 0003466 272.0968  87.9794 14.98326802 66590","mean_motion":14.98326802,"eccentricity":0.0003466,"inclination_deg":70.0031,"raan_deg":3.2112,"arg_perigee_deg":272.0968,"mean_anomaly_deg":87.9794,"bstar":-0.00043669,"rev_number":6659,"period_min":96.10720425463,"perigee_km":569.65684022948,"apogee_km":574.47472079693,"semimajor_km":6950.2027805132,"source":"CELESTRAK","updated_at":"2026-09-21T09:00:35.443517Z"}}}